�N����,����,�~����,�C��,���x,�C��,����,���ϕ���,�ő�u�ԕ���,�ő厞����,���˗�,�I�_���x,�n�����x,�ő啗���N��,DTYPE
"20/02/17","00:10",0.0,10.7,97.5,1001.7,263.1,2.3,5.8,236.1,0.00,10.4,10.7,"00:09:54",1
"20/02/17","00:20",0.0,10.2,97.1,1001.9,251.4,2.7,5.1,232.4,0.00,9.8,10.7,"00:10:08",1
"20/02/17","00:30",0.0,10.1,97.0,1001.2,243.6,3.1,6.2,233.9,0.00,9.7,10.8,"00:22:32",1
"20/02/17","00:40",0.0,10.2,97.2,1001.0,262.9,1.8,5.2,228.9,0.00,9.8,10.8,"00:32:16",1
"20/02/17","00:50",0.0,10.0,96.7,1002.2,258.5,1.7,7.1,236.1,0.00,9.5,10.7,"00:48:48",1
"20/02/17","01:00",0.0,9.8,96.6,1001.5,215.6,2.1,3.7,236.7,0.00,9.3,10.7,"00:51:20",1
"20/02/17","01:10",0.0,9.5,95.5,1001.9,254.4,3.2,5.9,256.8,0.00,8.9,10.6,"01:07:16",1
"20/02/17","01:20",0.0,9.5,94.7,1002.2,270.3,3.2,8.2,285.0,0.00,8.7,10.5,"01:16:58",1
"20/02/17","01:30",0.0,9.4,93.1,1002.6,245.9,3.2,9.8,222.3,0.00,8.4,10.6,"01:29:38",1
"20/02/17","01:40",0.0,9.5,90.9,1002.4,220.8,2.1,6.5,178.3,0.00,8.1,10.7,"01:37:28",1
"20/02/17","01:50",0.0,9.4,87.3,1001.7,217.0,2.2,6.3,230.3,0.00,7.4,10.4,"01:43:12",1
"20/02/17","02:00",0.0,9.3,84.3,1002.2,280.7,2.0,6.5,331.2,0.00,6.8,10.4,"01:59:28",1
"20/02/17","02:10",0.0,9.3,81.6,1002.9,258.5,2.0,5.4,238.2,0.00,6.4,10.5,"02:05:20",1
"20/02/17","02:20",0.0,9.4,79.4,1003.1,243.7,1.6,3.5,258.4,0.00,6.1,10.3,"02:10:16",1
"20/02/17","02:30",0.0,9.2,77.0,1003.1,265.7,2.7,6.4,226.3,0.00,5.4,10.4,"02:23:44",1
"20/02/17","02:40",0.0,9.1,74.6,1002.2,305.7,2.8,5.8,230.9,0.00,4.9,10.2,"02:31:42",1
"20/02/17","02:50",0.0,9.0,73.0,1001.9,275.7,3.1,8.0,234.5,0.00,4.5,10.2,"02:43:04",1
"20/02/17","03:00",0.0,8.8,72.7,1002.4,284.6,2.3,4.2,241.5,0.00,4.2,10.1,"02:52:40",1
"20/02/17","03:10",0.0,8.7,72.1,1002.9,283.9,3.0,4.7,264.6,0.00,4.0,10.1,"03:01:40",1
"20/02/17","03:20",0.0,8.6,71.9,1002.9,293.4,2.6,4.0,285.1,0.00,3.9,10.0,"03:14:26",1
"20/02/17","03:30",0.0,8.5,71.2,1002.9,309.4,3.0,5.7,335.3,0.00,3.6,9.9,"03:28:56",1
"20/02/17","03:40",0.0,8.5,71.2,1002.6,319.9,1.7,3.4,256.2,0.00,3.6,9.8,"03:32:00",1
"20/02/17","03:50",0.0,8.3,71.0,1002.6,210.2,1.5,4.4,242.5,0.00,3.4,9.9,"03:45:04",1
"20/02/17","04:00",0.0,8.2,71.6,1002.4,309.2,1.7,4.0,331.1,0.00,3.4,9.8,"03:54:48",1
"20/02/17","04:10",0.0,8.1,71.8,1002.6,289.8,2.7,7.7,335.9,0.00,3.4,9.7,"04:02:00",1
"20/02/17","04:20",0.0,8.0,71.8,1002.4,323.4,2.1,3.5,336.1,0.00,3.3,9.7,"04:17:20",1
"20/02/17","04:30",0.0,7.8,72.5,1002.9,300.6,1.7,2.6,302.7,0.00,3.2,9.8,"04:28:24",1
"20/02/17","04:40",0.0,7.7,72.9,1002.9,308.1,1.8,5.1,334.4,0.00,3.2,9.6,"04:30:02",1
"20/02/17","04:50",0.0,7.6,72.8,1002.9,291.3,2.8,4.7,322.4,0.00,3.1,9.7,"04:45:12",1
"20/02/17","05:00",0.0,7.5,72.8,1003.4,304.3,2.6,5.2,325.1,0.00,3.0,9.6,"04:53:04",1
"20/02/17","05:10",0.0,7.2,73.2,1003.1,290.5,1.7,4.5,304.4,0.00,2.8,9.7,"05:09:52",1
"20/02/17","05:20",0.0,7.0,73.8,1002.9,287.8,1.6,3.2,263.4,0.00,2.7,9.4,"05:10:42",1
"20/02/17","05:30",0.0,6.7,74.5,1002.9,304.9,1.5,2.1,319.3,0.00,2.5,9.3,"05:20:24",1
"20/02/17","05:40",0.0,6.6,75.5,1003.1,328.9,1.2,2.7,312.7,0.00,2.6,9.4,"05:32:48",1
"20/02/17","05:50",0.0,6.1,77.1,1003.1,328.9,1.7,2.4,324.8,0.00,2.4,9.2,"05:48:32",1
"20/02/17","06:00",0.0,5.8,78.8,1003.4,312.6,1.5,2.4,319.8,0.00,2.4,9.1,"05:57:36",1
"20/02/17","06:10",0.0,5.9,80.1,1003.4,311.6,1.7,3.4,316.7,0.00,2.8,9.2,"06:05:52",1
"20/02/17","06:20",0.0,6.0,81.0,1003.4,308.3,1.8,3.6,328.4,0.00,3.0,9.1,"06:12:48",1
"20/02/17","06:30",0.0,6.1,81.2,1003.6,272.6,2.0,2.9,274.7,0.00,3.2,9.1,"06:29:34",1
"20/02/17","06:40",0.0,6.3,80.4,1003.6,283.4,2.1,4.0,315.5,0.00,3.2,9.1,"06:34:56",1
"20/02/17","06:50",0.0,6.2,79.7,1003.8,264.8,1.5,3.2,245.0,0.00,3.0,8.9,"06:47:44",1
"20/02/17","07:00",0.0,6.0,78.9,1003.8,268.2,2.0,3.1,266.0,0.00,2.7,9.1,"06:50:40",1
"20/02/17","07:10",0.0,5.8,78.3,1003.6,278.5,1.5,4.0,299.4,0.00,2.4,9.0,"07:00:24",1
"20/02/17","07:20",0.0,5.8,78.5,1003.8,297.8,2.0,4.4,264.9,0.00,2.4,8.9,"07:12:04",1
"20/02/17","07:30",0.0,5.1,79.6,1004.1,296.9,1.1,2.4,317.1,0.00,1.9,9.0,"07:26:16",1
"20/02/17","07:40",0.0,4.9,81.0,1003.8,322.3,1.6,3.9,326.5,0.00,2.0,8.7,"07:31:52",1
"20/02/17","07:50",0.0,4.6,82.8,1003.8,331.2,1.7,2.7,329.6,0.00,2.0,8.7,"07:47:20",1
"20/02/17","08:00",0.0,4.7,84.1,1003.6,309.8,1.6,3.6,327.1,0.00,2.3,8.4,"07:54:16",1
"20/02/17","08:10",0.0,4.7,85.0,1003.8,282.6,1.8,3.7,131.8,0.00,2.4,8.7,"08:08:08",1
"20/02/17","08:20",0.0,5.5,84.6,1003.8,283.0,2.5,5.6,320.9,0.00,3.2,8.5,"08:14:50",1
"20/02/17","08:30",0.0,6.2,83.0,1004.3,293.5,1.6,2.9,312.7,0.03,3.6,8.6,"08:22:48",1
"20/02/17","08:40",0.0,6.3,81.4,1004.8,285.6,2.0,2.8,275.5,0.02,3.4,8.5,"08:34:00",1
"20/02/17","08:50",0.0,6.8,79.5,1005.0,296.7,1.7,3.6,325.3,0.05,3.5,8.6,"08:48:24",1
"20/02/17","09:00",0.0,6.7,77.5,1005.0,306.5,2.3,4.0,324.1,0.03,3.1,8.5,"08:55:12",1
"20/02/17","09:10",0.0,6.7,76.4,1005.0,306.6,1.0,2.0,295.6,0.03,2.9,8.5,"09:00:16",1
"20/02/17","09:20",0.0,6.7,75.7,1004.8,273.6,2.0,5.1,234.4,0.03,2.8,8.6,"09:19:36",1
"20/02/17","09:30",0.0,6.8,74.6,1005.0,292.9,2.3,4.7,327.4,0.03,2.6,8.4,"09:29:44",1
"20/02/17","09:40",0.0,7.5,73.2,1004.8,301.4,3.6,6.2,335.7,0.16,3.1,8.4,"09:38:34",1
"20/02/17","09:50",0.0,8.0,70.6,1004.8,287.7,3.6,5.5,309.6,0.25,3.0,8.7,"09:45:28",1
"20/02/17","10:00",0.0,8.7,68.6,1005.0,281.9,2.6,5.2,337.1,0.28,3.3,8.8,"09:55:20",1
"20/02/17","10:10",0.0,8.6,66.7,1005.0,265.7,3.2,5.6,287.5,0.29,2.8,8.9,"10:03:36",1
"20/02/17","10:20",0.0,8.8,65.2,1005.0,269.8,3.4,6.0,332.1,0.34,2.7,9.0,"10:14:32",1
"20/02/17","10:30",0.0,8.7,64.0,1005.0,275.1,3.0,5.9,318.5,0.33,2.3,9.0,"10:23:36",1
"20/02/17","10:40",0.0,8.4,63.5,1004.5,288.7,3.2,9.3,337.5,0.18,1.9,9.1,"10:35:36",1
"20/02/17","10:50",0.0,9.3,63.2,1004.8,268.2,2.6,5.5,239.8,0.42,2.7,9.3,"10:46:00",1
"20/02/17","11:00",0.0,9.3,60.2,1005.2,283.0,2.5,6.4,327.9,0.28,2.0,9.6,"10:59:20",1
"20/02/17","11:10",0.0,9.1,59.9,1004.8,270.6,2.8,5.7,312.2,0.24,1.8,9.7,"11:01:12",1
"20/02/17","11:20",0.0,9.2,59.0,1004.5,274.2,2.8,6.0,247.9,0.21,1.7,9.9,"11:13:28",1
"20/02/17","11:30",0.0,8.9,58.1,1004.3,262.5,3.7,6.7,269.3,0.22,1.2,9.9,"11:20:48",1
"20/02/17","11:40",0.0,8.9,58.1,1004.3,265.0,3.9,8.8,243.8,0.30,1.2,10.0,"11:34:08",1
"20/02/17","11:50",0.0,8.5,59.5,1004.3,266.2,4.0,6.4,279.2,0.27,1.1,10.0,"11:43:44",1
"20/02/17","12:00",0.0,8.5,58.8,1004.5,266.2,4.1,6.5,249.0,0.23,0.9,10.1,"11:52:08",1
"20/02/17","12:10",0.0,8.5,58.5,1004.3,266.6,3.7,5.8,249.4,0.22,0.9,9.9,"12:06:02",1
"20/02/17","12:20",0.0,9.3,58.7,1004.1,256.1,3.5,5.1,248.0,0.45,1.7,10.2,"12:15:04",1
"20/02/17","12:30",0.0,9.2,55.5,1003.8,262.9,2.8,7.3,302.9,0.29,0.8,10.1,"12:26:56",1
"20/02/17","12:40",0.0,8.8,55.2,1004.1,283.9,3.0,7.3,345.1,0.08,0.4,10.3,"12:39:04",1
"20/02/17","12:50",0.0,8.9,54.0,1004.1,279.0,4.1,6.0,321.5,0.23,0.1,10.3,"12:41:04",1
"20/02/17","13:00",0.0,9.7,51.2,1003.6,281.9,3.2,7.0,346.0,0.45,0.2,10.3,"12:58:24",1
"20/02/17","13:10",0.0,9.1,49.3,1003.6,285.0,4.0,8.6,252.3,0.16,-0.9,10.4,"13:06:08",1
"20/02/17","13:20",0.0,9.1,51.0,1003.1,282.9,3.1,5.2,268.9,0.09,-0.5,10.4,"13:11:12",1
"20/02/17","13:30",0.0,8.9,51.6,1003.1,302.2,3.7,5.8,326.5,0.07,-0.5,10.5,"13:22:08",1
"20/02/17","13:40",0.0,8.9,53.1,1002.9,288.9,3.2,8.0,340.6,0.10,-0.1,10.4,"13:32:40",1
"20/02/17","13:50",0.0,9.0,53.0,1002.9,297.5,2.8,5.7,340.2,0.09,0.0,10.5,"13:49:44",1
"20/02/17","14:00",0.0,9.1,52.9,1002.6,296.5,4.0,9.4,325.6,0.17,0.0,10.4,"13:55:36",1
"20/02/17","14:10",0.0,9.5,50.9,1002.6,276.9,3.4,7.7,333.8,0.21,-0.1,10.3,"14:00:24",1
"20/02/17","14:20",0.0,9.3,53.2,1002.9,268.9,3.9,8.0,233.7,0.21,0.3,10.4,"14:13:52",1
"20/02/17","14:30",0.0,9.1,51.4,1002.9,287.4,4.4,8.0,332.4,0.22,-0.3,10.5,"14:27:36",1
"20/02/17","14:40",0.0,9.1,52.7,1002.4,295.7,3.9,7.1,335.8,0.14,0.0,10.7,"14:34:40",1
"20/02/17","14:50",0.0,9.0,51.7,1002.9,290.8,3.7,7.1,337.5,0.09,-0.4,10.4,"14:48:40",1
"20/02/17","15:00",0.0,8.7,52.6,1002.9,283.5,4.4,7.7,232.6,0.05,-0.4,10.4,"14:56:00",1
"20/02/17","15:10",0.0,8.7,53.8,1002.9,284.4,3.6,7.0,263.4,0.14,-0.1,10.3,"15:05:04",1
"20/02/17","15:20",0.0,8.7,54.1,1002.2,291.9,4.1,7.1,305.8,0.12,0.0,10.2,"15:16:32",1
"20/02/17","15:30",0.0,9.2,56.1,1002.9,299.4,4.4,6.6,316.2,0.27,1.0,10.2,"15:29:04",1
"20/02/17","15:40",0.0,9.9,53.2,1002.6,264.6,2.7,6.5,222.8,0.33,0.9,10.3,"15:36:24",1
"20/02/17","15:50",0.0,9.8,53.9,1002.9,262.2,2.8,4.7,277.4,0.22,1.0,10.5,"15:43:28",1
"20/02/17","16:00",0.0,8.8,53.2,1002.6,243.3,4.2,7.3,194.3,0.07,-0.2,10.4,"15:55:28",1
"20/02/17","16:10",0.0,9.0,54.6,1002.9,270.5,3.4,6.2,246.5,0.16,0.4,10.4,"16:09:06",1
"20/02/17","16:20",0.0,8.8,54.3,1003.1,269.5,4.2,6.4,298.3,0.22,0.1,10.4,"16:11:46",1
"20/02/17","16:30",0.0,8.8,55.3,1002.9,300.6,4.5,8.0,301.4,0.18,0.4,10.3,"16:29:28",1
"20/02/17","16:40",0.0,8.2,55.5,1003.1,294.8,5.2,9.3,312.4,0.06,-0.1,10.3,"16:36:08",1
"20/02/17","16:50",0.0,7.9,60.6,1002.6,301.6,4.9,10.1,314.2,0.10,0.8,10.5,"16:40:24",1
"20/02/17","17:00",0.0,7.9,61.0,1002.4,312.8,3.9,7.4,324.0,0.11,0.9,10.3,"16:50:24",1
"20/02/17","17:10",0.0,7.8,60.5,1002.4,302.6,4.5,9.7,317.3,0.04,0.7,10.3,"17:01:44",1
"20/02/17","17:20",0.0,7.5,60.6,1002.9,314.0,5.6,10.3,327.4,0.01,0.4,10.0,"17:19:46",1
"20/02/17","17:30",0.0,6.4,66.7,1002.9,285.4,5.1,8.3,330.6,0.01,0.7,10.1,"17:24:56",1
"20/02/17","17:40",0.0,5.9,71.3,1002.9,295.8,4.6,7.1,308.8,0.03,1.1,9.9,"17:31:12",1
"20/02/17","17:50",0.0,5.7,72.8,1002.6,303.7,3.9,6.6,315.9,0.00,1.2,10.0,"17:46:26",1
"20/02/17","18:00",0.0,5.5,73.2,1002.9,309.5,4.5,7.2,326.4,0.00,1.1,10.0,"17:53:52",1
"20/02/17","18:10",0.0,5.4,73.2,1003.6,296.8,3.1,7.5,329.7,0.00,1.0,9.8,"18:08:30",1
"20/02/17","18:20",0.0,5.5,72.5,1003.4,300.3,4.0,5.8,266.7,0.00,1.0,9.6,"18:12:08",1
"20/02/17","18:30",0.0,5.3,72.1,1003.8,296.7,2.6,4.1,317.1,0.00,0.7,9.6,"18:23:28",1
"20/02/17","18:40",0.0,5.5,71.9,1003.6,277.9,3.1,6.2,301.2,0.00,0.9,9.4,"18:34:08",1
"20/02/17","18:50",0.0,5.2,72.0,1003.6,251.3,3.2,5.2,229.9,0.00,0.6,9.3,"18:43:32",1
"20/02/17","19:00",0.0,4.9,72.8,1003.6,270.3,2.3,3.6,292.5,0.00,0.5,9.2,"18:53:12",1
"20/02/17","19:10",0.0,4.8,73.0,1003.6,264.5,2.1,3.3,249.3,0.00,0.4,9.2,"19:09:30",1
"20/02/17","19:20",0.0,5.0,72.1,1004.1,264.6,3.0,5.4,234.6,0.00,0.4,9.1,"19:15:40",1
"20/02/17","19:30",0.0,5.1,71.4,1004.5,261.1,3.2,5.2,265.7,0.00,0.4,9.0,"19:26:22",1
"20/02/17","19:40",0.0,5.0,70.2,1004.1,261.3,2.8,5.9,264.2,0.00,0.1,8.8,"19:36:26",1
"20/02/17","19:50",0.0,4.9,68.2,1003.8,279.8,3.0,6.8,239.0,0.00,-0.4,8.9,"19:44:30",1
"20/02/17","20:00",0.0,4.9,65.3,1003.8,304.5,4.1,8.1,308.3,0.00,-1.0,8.7,"19:52:34",1
"20/02/17","20:10",0.0,5.0,60.2,1004.1,275.0,3.6,7.0,294.8,0.00,-2.0,8.7,"20:06:40",1
"20/02/17","20:20",0.0,4.7,58.3,1004.5,275.7,2.6,6.6,238.3,0.00,-2.7,8.5,"20:11:06",1
"20/02/17","20:30",0.0,4.9,54.8,1004.5,281.9,4.1,8.7,251.3,0.00,-3.4,8.5,"20:26:16",1
"20/02/17","20:40",0.0,4.7,54.0,1004.3,289.0,4.0,7.0,332.2,0.00,-3.8,8.3,"20:30:24",1
"20/02/17","20:50",0.0,4.5,54.1,1004.5,286.8,3.4,5.4,299.7,0.00,-3.9,8.3,"20:40:56",1
"20/02/17","21:00",0.0,4.4,54.1,1004.3,299.0,4.0,6.7,330.0,0.00,-4.0,8.2,"20:52:48",1
"20/02/17","21:10",0.0,4.1,54.8,1004.5,306.7,3.0,4.7,326.5,0.00,-4.1,8.0,"21:01:28",1
"20/02/17","21:20",0.0,3.9,54.9,1004.3,290.4,2.5,4.4,325.4,0.00,-4.3,8.1,"21:11:12",1
"20/02/17","21:30",0.0,3.9,54.6,1004.5,298.2,3.2,6.3,336.1,0.00,-4.4,8.1,"21:28:40",1
"20/02/17","21:40",0.0,3.8,53.9,1004.5,299.4,2.8,4.5,331.6,0.00,-4.6,7.7,"21:32:16",1
"20/02/17","21:50",0.0,3.8,53.3,1004.5,293.3,3.0,7.2,343.6,0.00,-4.8,7.9,"21:40:02",1
"20/02/17","22:00",0.0,4.0,50.8,1005.0,296.9,4.0,8.6,313.5,0.00,-5.2,7.7,"21:55:28",1
"20/02/17","22:10",0.0,3.9,50.5,1004.8,295.1,3.6,7.1,322.1,0.00,-5.4,7.6,"22:03:36",1
"20/02/17","22:20",0.0,3.8,50.5,1004.8,288.7,3.4,7.2,326.3,0.00,-5.5,7.6,"22:12:16",1
"20/02/17","22:30",0.0,3.6,51.3,1004.3,286.8,3.2,6.4,345.4,0.00,-5.5,7.6,"22:26:40",1
"20/02/17","22:40",0.0,3.4,52.0,1004.8,287.0,2.6,6.6,259.9,0.00,-5.5,7.7,"22:30:08",1
"20/02/17","22:50",0.0,3.3,52.4,1004.5,283.5,3.0,5.5,319.8,0.00,-5.5,7.6,"22:48:08",1
"20/02/17","23:00",0.0,3.4,51.9,1004.5,292.0,3.2,5.5,316.6,0.00,-5.5,7.5,"22:54:56",1
"20/02/17","23:10",0.0,3.3,51.8,1005.0,297.7,3.5,6.5,335.8,0.00,-5.6,7.5,"23:07:04",1
"20/02/17","23:20",0.0,3.3,51.7,1004.8,284.5,3.4,8.3,305.7,0.00,-5.6,7.3,"23:13:04",1
"20/02/17","23:30",0.0,3.2,51.5,1004.3,289.2,3.9,7.2,310.6,0.00,-5.8,7.3,"23:20:48",1
"20/02/17","23:40",0.0,3.1,52.7,1004.5,271.3,3.5,5.7,309.8,0.00,-5.6,7.3,"23:30:56",1
"20/02/17","23:50",0.0,3.0,53.9,1004.5,283.0,3.6,7.9,309.8,0.00,-5.4,7.0,"23:41:38",1
"20/02/17","24:00",0.0,2.8,55.4,1004.5,285.6,3.5,5.7,320.9,0.00,-5.2,7.1,"23:58:56",1
